Location: Bacharowice
(49.9333°N, 19.5833°E)
Time: 04:23:27
(UTC+00:00)

Cosmos 1908 Rocket - Pass Details

Date: 28 September 2021
Orbit: 605 x 633 km, 82.5° (Epoch: 17 October)

Event Time Altitude Azimuth Distance (km) Brightness Sun altitude
Rises 17:31:20 0° 197° (SSW) 2,915 7.1 -11.2°
Reaches altitude 10° 17:33:35 10° 200° (SSW) 2,011 6.3 -11.6°
Maximum altitude 17:38:01 63° 282° (WNW) 705 4.1 -12.3°
Drops below altitude 10° 17:42:28 10° 4° (N) 2,016 6.3 -13.0°
Sets 17:44:43 0° 8° (N) 2,924 7.1 -13.4°
